Date String (YYYY-MM-DD hh:mm:ss) UTC,Instrument flags,Ambient pressure (hPa),Sample flow (lpm),Bypass flow (lpm),Sample temperature (°C),Ambient temperature (°C),ASC tube jacket temperature (°C),LED temperature (°C),Box temperature (°C),Sample RH (%),Span deviation,Mass concentration (μg/m³),Mass concentration (μg/m³),Mass concentration (μg/m³)
DateTimeUTC,F1_M11,P_M11,Q1_M11,Q2_M11,T1_M11,T2_M11,T3_M11,T4_M11,T5_M11,U1_M11,ZSPAN_M11,X0_M11,X2_M11,X1_M11
2022-11-22 17:00:00,,0829.4,5.00,0.00,23.5,22.6,00.0,32.2,25.4,07.1,0000.0,0006.64,0003.57,0003.35
2022-11-22 17:01:00,,0829.5,4.99,0.00,23.5,22.6,00.0,32.3,25.4,07.0,0000.0,0006.63,0003.57,0003.35
2022-11-22 17:02:00,,0829.5,5.00,0.00,23.5,22.6,00.0,32.3,25.5,06.7,0000.0,0006.64,0003.56,0003.34
2022-11-22 17:03:00,,0829.5,5.00,0.00,23.5,22.6,00.0,32.3,25.5,06.7,0000.0,0005.31,0003.54,0003.33
2022-11-22 17:04:00,,0829.5,5.00,0.00,23.6,22.6,00.0,32.3,25.5,06.3,0000.0,0005.08,0003.53,0003.32
2022-11-22 17:05:00,,0829.5,5.00,0.00,23.6,22.6,00.0,32.3,25.5,06.6,0000.0,0005.07,0003.52,0003.31
2022-11-22 17:06:00,,0829.5,5.00,0.00,23.6,22.6,00.0,32.4,25.5,06.4,0000.0,0005.15,0003.53,0003.31
2022-11-22 17:07:00,,0829.5,5.00,0.00,23.6,22.6,00.0,32.4,25.5,06.7,0000.0,0005.28,0003.54,0003.31
2022-11-22 17:08:00,,0829.6,5.00,0.00,23.6,22.6,00.0,32.4,25.5,07.1,0000.0,0005.59,0003.57,0003.33
2022-11-22 17:09:00,,0829.5,4.99,0.00,23.6,22.7,00.0,32.4,25.6,06.5,0000.0,0005.59,0003.57,0003.33
2022-11-22 17:10:00,,0829.5,4.99,0.00,23.7,22.7,00.0,32.4,25.6,06.5,0000.0,0005.62,0003.57,0003.34
2022-11-22 17:11:00,,0829.5,5.01,0.00,23.7,22.7,00.0,32.4,25.6,06.3,0000.0,0005.80,0003.57,0003.33
2022-11-22 17:12:00,,0829.5,5.01,0.00,23.7,22.7,00.0,32.4,25.6,06.7,0000.0,0005.79,0003.54,0003.32
2022-11-22 17:13:00,,0829.5,5.00,0.00,23.7,22.7,00.0,32.4,25.6,06.7,0000.0,0007.39,0003.53,0003.32
2022-11-22 17:14:00,,0829.5,4.98,0.00,23.7,22.7,00.0,32.5,25.6,06.7,0000.0,0007.54,0003.55,0003.32
2022-11-22 17:15:00,,0829.5,5.01,0.00,23.7,22.8,00.0,32.5,25.6,07.3,0000.0,0007.66,0003.59,0003.34
2022-11-22 17:16:00,,0829.5,5.01,0.00,23.7,22.8,00.0,32.5,25.6,06.6,0000.0,0007.71,0003.60,0003.35
2022-11-22 17:17:00,,0829.5,5.00,0.00,23.8,22.8,00.0,32.5,25.7,07.0,0000.0,0007.73,0003.59,0003.35
2022-11-22 17:18:00,,0829.4,4.98,0.00,23.8,22.8,00.0,32.5,25.7,06.5,0000.0,0007.63,0003.56,0003.35
2022-11-22 17:19:00,,0829.3,5.00,0.00,23.8,22.8,00.0,32.5,25.7,06.6,0000.0,0007.55,0003.52,0003.33
2022-11-22 17:20:00,,0829.3,5.01,0.00,23.8,22.8,00.0,32.6,25.7,07.1,0000.0,0007.78,0003.52,0003.32
2022-11-22 17:21:00,,0829.3,5.00,0.00,23.8,22.8,00.0,32.6,25.7,06.8,0000.0,0007.73,0003.52,0003.33
2022-11-22 17:22:00,,0829.4,4.99,0.00,23.8,22.8,00.0,32.6,25.7,06.6,0000.0,0007.66,0003.55,0003.35
2022-11-22 17:23:00,,0829.3,4.99,0.00,23.9,22.9,00.0,32.6,25.7,06.4,0000.0,0007.63,0003.60,0003.36
2022-11-22 17:24:00,,0829.2,5.01,0.00,23.9,22.9,00.0,32.6,25.8,06.7,0000.0,0006.36,0003.62,0003.36
2022-11-22 17:25:00,,0829.2,5.01,0.00,23.9,22.9,00.0,32.6,25.8,06.5,0000.0,0006.05,0003.59,0003.35
2022-11-22 17:26:00,,0829.3,5.00,0.00,23.9,22.9,00.0,32.7,25.8,06.3,0000.0,0005.79,0003.54,0003.32
2022-11-22 17:27:00,,0829.2,4.99,0.00,23.9,22.9,00.0,32.7,25.9,06.3,0000.0,0005.72,0003.52,0003.28
2022-11-22 17:28:00,,0829.2,5.00,0.00,23.9,22.9,00.0,32.7,25.9,06.1,0000.0,0005.63,0003.50,0003.25
2022-11-22 17:29:00,,0829.3,5.00,0.00,23.9,23.0,00.0,32.7,25.9,06.0,0000.0,0005.69,0003.48,0003.22
2022-11-22 17:30:00,,0829.2,4.99,0.00,24.0,23.0,00.0,32.7,25.9,06.2,0000.0,0005.51,0003.44,0003.19
2022-11-22 17:31:00,,0829.3,5.02,0.00,24.0,23.0,00.0,32.7,25.9,06.6,0000.0,0005.04,0003.41,0003.14
2022-11-22 17:32:00,,0829.3,5.00,0.00,24.0,23.0,00.0,32.7,25.9,06.7,0000.0,0005.35,0003.39,0003.11
2022-11-22 17:33:00,,0829.3,5.00,0.00,24.0,23.0,00.0,32.8,25.9,06.8,0000.0,0005.53,0003.33,0003.04
2022-11-22 17:34:00,,0829.2,5.00,0.00,24.0,23.1,00.0,32.8,25.9,06.5,0000.0,0005.36,0003.27,0003.00
2022-11-22 17:35:00,,0829.2,5.00,0.00,24.0,23.1,00.0,32.8,25.9,06.6,0000.0,0005.24,0003.24,0002.96
2022-11-22 17:36:00,,0829.2,5.00,0.00,24.1,23.1,00.0,32.8,26.0,06.1,0000.0,0005.65,0003.25,0002.94
2022-11-22 17:37:00,,0829.2,5.00,0.00,24.1,23.1,00.0,32.8,26.0,06.3,0000.0,0005.75,0003.25,0002.93
2022-11-22 17:38:00,,0829.3,5.00,0.00,24.1,23.1,00.0,32.8,26.0,06.3,0000.0,0005.79,0003.25,0002.94
2022-11-22 17:39:00,,0829.2,5.00,0.00,24.1,23.1,00.0,32.9,26.0,06.4,0000.0,0005.79,0003.25,0002.93
2022-11-22 17:40:00,,0829.2,5.00,0.00,24.1,23.1,00.0,32.9,26.0,06.8,0000.0,0005.83,0003.29,0002.97
2022-11-22 17:41:00,,0829.2,5.00,0.00,24.1,23.2,00.0,32.9,26.1,06.6,0000.0,0005.85,0003.30,0003.00
2022-11-22 17:42:00,,0829.2,5.01,0.00,24.2,23.2,00.0,32.9,26.1,06.2,0000.0,0005.89,0003.31,0003.02
2022-11-22 17:43:00,,0829.2,5.01,0.00,24.2,23.2,00.0,32.9,26.1,06.4,0000.0,0005.68,0003.34,0003.03
2022-11-22 17:44:00,,0829.2,4.99,0.00,24.2,23.2,00.0,32.9,26.2,06.5,0000.0,0005.58,0003.39,0003.06
2022-11-22 17:45:00,,0829.1,5.00,0.00,24.2,23.2,00.0,33.0,26.1,07.2,0000.0,0006.03,0003.45,0003.08
2022-11-22 17:46:00,,0829.1,5.01,0.00,24.2,23.2,00.0,33.0,26.2,06.8,0000.0,0006.19,0003.48,0003.07
2022-11-22 17:47:00,,0829.1,5.01,0.00,24.2,23.2,00.0,33.0,26.2,06.4,0000.0,0005.95,0003.50,0003.10
2022-11-22 17:48:00,,0829.1,4.98,0.00,24.2,23.3,00.0,33.0,26.2,06.5,0000.0,0006.03,0003.53,0003.12
2022-11-22 17:49:00,,0829.0,5.00,0.00,24.3,23.3,00.0,33.0,26.2,06.5,0000.0,0006.08,0003.55,0003.13
2022-11-22 17:50:00,,0829.1,5.00,0.00,24.3,23.3,00.0,33.0,26.2,06.8,0000.0,0006.10,0003.56,0003.14
2022-11-22 17:51:00,,0829.0,5.00,0.00,24.3,23.3,00.0,33.0,26.2,06.5,0000.0,0007.35,0003.58,0003.14
2022-11-22 17:52:00,,0829.1,5.02,0.00,24.3,23.3,00.0,33.0,26.2,06.5,0000.0,0008.83,0003.67,0003.15
2022-11-22 17:53:00,,0829.1,4.99,0.00,24.3,23.3,00.0,33.1,26.3,06.6,0000.0,0009.05,0003.76,0003.18
2022-11-22 17:54:00,,0829.1,4.99,0.00,24.3,23.3,00.0,33.1,26.2,06.8,0000.0,0009.11,0003.80,0003.19
2022-11-22 17:55:00,,0829.0,5.00,0.00,24.3,23.3,00.0,33.1,26.3,06.6,0000.0,0009.58,0003.78,0003.19
2022-11-22 17:56:00,,0829.0,5.01,0.00,24.3,23.3,00.0,33.1,26.3,06.6,0000.0,0009.50,0003.75,0003.19
2022-11-22 17:57:00,,0829.0,5.00,0.00,24.3,23.3,00.0,33.1,26.3,06.6,0000.0,0009.76,0003.75,0003.21
2022-11-22 17:58:00,,0829.0,5.01,0.00,24.3,23.3,00.0,33.1,26.3,06.7,0000.0,0009.85,0003.78,0003.23
2022-11-22 17:59:00,,0828.9,4.99,0.00,24.4,23.3,00.0,33.1,26.3,07.0,0000.0,0009.87,0003.80,0003.25
